Worthington, MN

8:50 PM CDT on March 26, 2017 (GMT -0500)
Worthington Municipal

Weather History for KOTG - June, 2013

Change the Weather History Date:

Sunday, June 23, 2013

  Actual Average Record
Temperature  
Mean Temperature 71 °F -  
Max Temperature 78 °F 76 °F 95 °F (1987)
Min Temperature 64 °F 57 °F 46 °F (1972)
Cooling Degree Days 6    
Growing Degree Days 21 (Base 50)    
Moisture  
Dew Point 61 °F    
Average Humidity 69    
Maximum Humidity 83    
Minimum Humidity 51    
Precipitation  
Precipitation 0.07 in - - ()
Sea Level Pressure  
Sea Level Pressure 29.84 in    
Wind  
Wind Speed 13 mph (WSW)    
Max Wind Speed 34 mph    
Max Gust Speed 45 mph    
Visibility 10 miles    
Events Thunderstorm    
Averages and records for this station are not official NWS values.
T = Trace of Precipitation, MM = Missing Value Source: NWS Daily Summary

Daily Weather History Graph

Daily Weather History Graph

Search for Another Location

Airport or City:

Trip Planner

Search our weather history database for the weather conditions in past years. The results will help you decide how hot, cold, wet, or windy it might be!

Date:

Astronomy

Jun. 23, 2013 Rise Set
Actual Time 5:41 AM CDT 9:07 PM CDT
Civil Twilight 5:05 AM CDT 9:43 PM CDT
Nautical Twilight 4:18 AM CDT 10:30 PM CDT
Astronomical Twilight 3:18 AM CDT 11:30 PM CDT
Moon 9:17 PM CDT (6/23) 6:02 AM CDT (6/23)
Length of Visible Light 16h 38m
Length of Day
15h 26m
Full, 100% of the Moon is Illuminated
Jun 23
Full
Jun 29
Last Quarter
Jul 8
New
Jul 15
First Quarter
Jul 22
Full

Hourly Weather History & Observations

Time (CDT) Temp. Dew Point Humidity Pressure Visibility Wind Dir Wind Speed Gust Speed Precip Events Conditions
12:15 AM 71.6 °F 62.6 °F 73% 29.79 in 10.0 mi ESE 10.4 mph - N/A   Scattered Clouds
12:35 AM 71.6 °F 62.6 °F 73% 29.77 in 10.0 mi ESE 11.5 mph - N/A   Scattered Clouds
12:55 AM 71.6 °F 62.6 °F 73% 29.77 in 10.0 mi SE 9.2 mph - N/A   Mostly Cloudy
1:15 AM 71.6 °F 62.6 °F 73% 29.77 in 10.0 mi SE 9.2 mph - N/A   Partly Cloudy
1:35 AM 71.6 °F 62.6 °F 73% 29.76 in 10.0 mi SSE 8.1 mph - N/A   Clear
1:55 AM 73.4 °F 62.6 °F 69% 29.74 in 10.0 mi SSE 11.5 mph - N/A   Partly Cloudy
2:15 AM 73.4 °F 62.6 °F 69% 29.74 in 10.0 mi South 15.0 mph 18.4 mph N/A   Partly Cloudy
2:35 AM 73.4 °F 62.6 °F 69% 29.72 in 10.0 mi South 16.1 mph 20.7 mph N/A   Partly Cloudy
2:55 AM 73.4 °F 62.6 °F 69% 29.71 in 10.0 mi SSE 18.4 mph 23.0 mph N/A   Scattered Clouds
3:15 AM 73.4 °F 62.6 °F 69% 29.73 in 10.0 mi South 20.7 mph 26.5 mph N/A   Mostly Cloudy
3:35 AM 73.4 °F 62.6 °F 69% 29.74 in 10.0 mi SSW 34.5 mph 44.9 mph N/A Thunderstorm Mostly Cloudy
3:55 AM 71.6 °F 64.4 °F 78% 29.77 in 8.0 mi WSW 28.8 mph 36.8 mph 0.06 in Thunderstorm Mostly Cloudy
4:15 AM 69.8 °F 62.6 °F 78% 29.74 in 10.0 mi West 17.3 mph 25.3 mph 0.01 in   Mostly Cloudy
4:35 AM 66.2 °F 60.8 °F 83% 29.75 in 10.0 mi West 26.5 mph 38.0 mph 0.01 in   Scattered Clouds
4:55 AM 66.2 °F 59.0 °F 78% 29.74 in 10.0 mi WSW 21.9 mph 31.1 mph 0.01 in   Mostly Cloudy
5:15 AM 66.2 °F 59.0 °F 78% 29.78 in 10.0 mi WSW 20.7 mph - N/A   Scattered Clouds
5:35 AM 66.2 °F 59.0 °F 78% 29.78 in 10.0 mi West 18.4 mph - N/A   Clear
5:55 AM 64.4 °F 59.0 °F 83% 29.77 in 10.0 mi West 13.8 mph - N/A   Clear
6:15 AM 66.2 °F 57.2 °F 73% 29.78 in 10.0 mi SW 15.0 mph 32.2 mph N/A   Partly Cloudy
6:35 AM 68.0 °F 55.4 °F 64% 29.79 in 10.0 mi SW 6.9 mph - N/A   Partly Cloudy
6:55 AM 66.2 °F 57.2 °F 73% 29.79 in 10.0 mi SSW 6.9 mph - N/A   Partly Cloudy
7:15 AM 66.2 °F 57.2 °F 73% 29.80 in 10.0 mi SSW 8.1 mph - N/A   Mostly Cloudy
7:35 AM 64.4 °F 57.2 °F 77% 29.74 in 10.0 mi SE 3.5 mph - N/A   Mostly Cloudy
7:55 AM 64.4 °F 57.2 °F 77% 29.78 in 10.0 mi West 5.8 mph - N/A   Partly Cloudy
8:15 AM 64.4 °F 59.0 °F 83% 29.80 in 10.0 mi West 10.4 mph - N/A   Clear
8:35 AM 64.4 °F 57.2 °F 77% 29.81 in 10.0 mi WSW 11.5 mph - N/A   Clear
8:55 AM 66.2 °F 59.0 °F 78% 29.79 in 10.0 mi West 12.7 mph - N/A   Clear
9:15 AM 66.2 °F 59.0 °F 78% 29.80 in 10.0 mi West 16.1 mph - N/A   Clear
9:35 AM 66.2 °F 60.8 °F 83% 29.80 in 10.0 mi West 11.5 mph - N/A   Clear
9:55 AM 68.0 °F 60.8 °F 78% 29.82 in 10.0 mi West 15.0 mph - N/A   Clear
10:15 AM 69.8 °F 60.8 °F 73% 29.84 in 10.0 mi West 11.5 mph - N/A   Clear
10:35 AM 69.8 °F 59.0 °F 68% 29.85 in 10.0 mi WSW 11.5 mph - N/A   Clear
10:55 AM 69.8 °F 60.8 °F 73% 29.86 in 10.0 mi West 15.0 mph - N/A   Partly Cloudy
11:15 AM 71.6 °F 60.8 °F 69% 29.87 in 10.0 mi WSW 15.0 mph - N/A   Mostly Cloudy
11:35 AM 71.6 °F 60.8 °F 69% 29.87 in 10.0 mi WSW 11.5 mph 17.3 mph N/A   Overcast
11:55 AM 71.6 °F 60.8 °F 69% 29.86 in 10.0 mi SW 16.1 mph - N/A   Mostly Cloudy
12:15 PM 71.6 °F 60.8 °F 69% 29.86 in 10.0 mi WSW 16.1 mph - N/A   Mostly Cloudy
12:35 PM 71.6 °F 60.8 °F 69% 29.87 in 10.0 mi SW 18.4 mph - N/A   Scattered Clouds
12:55 PM 73.4 °F 60.8 °F 65% 29.87 in 10.0 mi SW 17.3 mph 24.2 mph N/A   Partly Cloudy
1:15 PM 73.4 °F 60.8 °F 65% 29.88 in 10.0 mi WSW 18.4 mph 23.0 mph N/A   Clear
1:35 PM 73.4 °F 60.8 °F 65% 29.87 in 10.0 mi WSW 19.6 mph - N/A   Clear
1:55 PM 73.4 °F 62.6 °F 69% 29.88 in 10.0 mi WSW 17.3 mph 21.9 mph N/A   Clear
2:15 PM 75.2 °F 62.6 °F 65% 29.87 in 10.0 mi WSW 16.1 mph 21.9 mph N/A   Partly Cloudy
2:35 PM 75.2 °F 62.6 °F 65% 29.87 in 10.0 mi West 18.4 mph 24.2 mph N/A   Scattered Clouds
2:55 PM 75.2 °F 62.6 °F 65% 29.87 in 10.0 mi WSW 13.8 mph 20.7 mph N/A   Partly Cloudy
3:15 PM 75.2 °F 62.6 °F 65% 29.87 in 10.0 mi WSW 12.7 mph - N/A   Clear
3:35 PM 77.0 °F 62.6 °F 61% 29.87 in 6.0 mi SW 15.0 mph - N/A   Clear
3:55 PM 77.0 °F 60.8 °F 57% 29.87 in 10.0 mi WSW 11.5 mph 17.3 mph N/A   Clear
4:15 PM 77.0 °F 62.6 °F 61% 29.87 in 10.0 mi West 15.0 mph - N/A   Clear
4:35 PM 77.0 °F 62.6 °F 61% 29.88 in 10.0 mi SW 13.8 mph - N/A   Clear
4:55 PM 78.8 °F 60.8 °F 54% 29.87 in 10.0 mi West 11.5 mph - N/A   Clear
5:15 PM 78.8 °F 62.6 °F 57% 29.87 in 10.0 mi West 13.8 mph - N/A   Clear
5:35 PM 78.8 °F 62.6 °F 57% 29.87 in 10.0 mi West 12.7 mph - N/A   Clear
5:55 PM 78.8 °F 62.6 °F 57% 29.88 in 10.0 mi West 11.5 mph - N/A   Clear
6:15 PM 78.8 °F 60.8 °F 54% 29.88 in 10.0 mi West 10.4 mph - N/A   Clear
6:35 PM 78.8 °F 59.0 °F 51% 29.89 in 10.0 mi West 11.5 mph - N/A   Clear
6:55 PM 78.8 °F 60.8 °F 54% 29.89 in 10.0 mi West 9.2 mph - N/A   Clear
7:15 PM 78.8 °F 59.0 °F 51% 29.89 in 10.0 mi West 9.2 mph - N/A   Clear
7:35 PM 77.0 °F 59.0 °F 54% 29.90 in 10.0 mi West 8.1 mph - N/A   Clear
7:55 PM 75.2 °F 60.8 °F 61% 29.90 in 10.0 mi WNW 6.9 mph - N/A   Clear
8:15 PM 75.2 °F 60.8 °F 61% 29.90 in 10.0 mi WNW 5.8 mph - N/A   Clear
8:35 PM 73.4 °F 60.8 °F 65% 29.90 in 10.0 mi WNW 4.6 mph - N/A   Clear
8:55 PM 73.4 °F 62.6 °F 69% 29.90 in 10.0 mi WNW 4.6 mph - N/A   Clear
9:15 PM 73.4 °F 62.6 °F 69% 29.90 in 10.0 mi WNW 3.5 mph - N/A   Clear
9:35 PM 71.6 °F 62.6 °F 73% 29.91 in 10.0 mi Calm Calm - N/A   Clear
9:55 PM 71.6 °F 60.8 °F 69% 29.91 in 10.0 mi Calm Calm - N/A   Clear
10:15 PM 69.8 °F 62.6 °F 78% 29.92 in 10.0 mi Calm Calm - N/A   Clear
10:35 PM 69.8 °F 60.8 °F 73% 29.92 in 10.0 mi Calm Calm - N/A   Clear
10:55 PM 69.8 °F 60.8 °F 73% 29.93 in 10.0 mi Calm Calm - N/A   Clear
11:15 PM 69.8 °F 60.8 °F 73% 29.94 in 10.0 mi SSE 4.6 mph - N/A   Clear
11:35 PM 68.0 °F 60.8 °F 78% 29.94 in 10.0 mi South 3.5 mph - N/A   Clear
11:55 PM 68.0 °F 60.8 °F 78% 29.94 in 10.0 mi Calm Calm - N/A   Clear